Year,Month,Day,Hour,Minute,Value (Times are PST for temperature in C)
2008,07,12,00,00,15.50
2008,07,12,00,01,15.50
2008,07,12,00,02,15.50
2008,07,12,00,03,15.50
2008,07,12,00,04,15.40
2008,07,12,00,05,15.40
2008,07,12,00,06,15.40
2008,07,12,00,07,15.40
2008,07,12,00,08,15.50
2008,07,12,00,09,15.50
2008,07,12,00,10,15.50
2008,07,12,00,11,15.60
2008,07,12,00,12,15.60
2008,07,12,00,13,15.60
2008,07,12,00,14,15.60
2008,07,12,00,15,15.60
2008,07,12,00,16,15.60
2008,07,12,00,17,15.60
2008,07,12,00,18,15.60
2008,07,12,00,19,15.60
2008,07,12,00,20,15.60
2008,07,12,00,21,15.60
2008,07,12,00,22,15.50
2008,07,12,00,23,15.50
2008,07,12,00,24,15.50
2008,07,12,00,25,15.50
2008,07,12,00,26,15.50
2008,07,12,00,27,15.50
2008,07,12,00,28,15.40
2008,07,12,00,29,15.40
2008,07,12,00,30,15.40
2008,07,12,00,31,15.40
2008,07,12,00,32,15.40
2008,07,12,00,33,15.40
2008,07,12,00,34,15.40
2008,07,12,00,35,15.40
2008,07,12,00,36,15.40
2008,07,12,00,37,15.40
2008,07,12,00,38,15.40
2008,07,12,00,39,15.40
2008,07,12,00,40,15.40
2008,07,12,00,41,15.40
2008,07,12,00,42,15.40
2008,07,12,00,43,15.40
2008,07,12,00,44,15.40
2008,07,12,00,45,15.40
2008,07,12,00,46,15.40
2008,07,12,00,47,15.40
2008,07,12,00,48,15.50
2008,07,12,00,49,15.50
2008,07,12,00,50,15.50
2008,07,12,00,51,15.50
2008,07,12,00,52,15.50
2008,07,12,00,53,15.40
2008,07,12,00,54,15.40
2008,07,12,00,55,15.40
2008,07,12,00,56,15.40
2008,07,12,00,57,15.40
2008,07,12,00,58,15.30
2008,07,12,00,59,15.30
2008,07,12,01,00,15.30
2008,07,12,01,01,15.30
2008,07,12,01,02,15.40
2008,07,12,01,03,15.40
2008,07,12,01,04,15.40
2008,07,12,01,05,15.40
2008,07,12,01,06,15.30
2008,07,12,01,07,15.30
2008,07,12,01,08,15.30
2008,07,12,01,09,15.30
2008,07,12,01,10,15.20
2008,07,12,01,11,15.10
2008,07,12,01,12,15.10
2008,07,12,01,13,15.10
2008,07,12,01,14,15.00
2008,07,12,01,15,15.00
2008,07,12,01,16,15.00
2008,07,12,01,17,15.00
2008,07,12,01,18,15.00
2008,07,12,01,19,15.00
2008,07,12,01,20,15.00
2008,07,12,01,21,14.90
2008,07,12,01,22,14.90
2008,07,12,01,23,14.90
2008,07,12,01,24,14.90
2008,07,12,01,25,14.90
2008,07,12,01,26,14.90
2008,07,12,01,27,14.90
2008,07,12,01,28,14.80
2008,07,12,01,29,14.80
2008,07,12,01,30,14.80
2008,07,12,01,31,14.80
2008,07,12,01,32,14.80
2008,07,12,01,33,14.70
2008,07,12,01,34,14.70
2008,07,12,01,35,14.70
2008,07,12,01,36,14.70
2008,07,12,01,37,14.70
2008,07,12,01,38,14.70
2008,07,12,01,39,14.70
2008,07,12,01,40,14.70
2008,07,12,01,41,14.70
2008,07,12,01,42,14.70
2008,07,12,01,43,14.80
2008,07,12,01,44,14.80
2008,07,12,01,45,14.90
2008,07,12,01,46,14.90
2008,07,12,01,47,15.00
2008,07,12,01,48,15.00
2008,07,12,01,49,15.00
2008,07,12,01,50,15.00
2008,07,12,01,51,15.00
2008,07,12,01,52,15.00
2008,07,12,01,53,15.00
2008,07,12,01,54,14.90
2008,07,12,01,55,14.90
2008,07,12,01,56,14.90
2008,07,12,01,57,14.80
2008,07,12,01,58,14.80
2008,07,12,01,59,14.80
2008,07,12,02,00,14.80
2008,07,12,02,01,14.80
2008,07,12,02,02,14.80
2008,07,12,02,03,14.90
2008,07,12,02,04,14.90
2008,07,12,02,05,14.90
2008,07,12,02,06,14.90
2008,07,12,02,07,14.90
2008,07,12,02,08,14.90
2008,07,12,02,09,14.90
2008,07,12,02,10,14.90
2008,07,12,02,11,14.90
2008,07,12,02,12,14.80
2008,07,12,02,13,14.80
2008,07,12,02,14,14.80
2008,07,12,02,15,14.80
2008,07,12,02,16,14.80
2008,07,12,02,17,14.80
2008,07,12,02,18,14.80
2008,07,12,02,19,14.80
2008,07,12,02,20,14.80
2008,07,12,02,21,14.80
2008,07,12,02,22,14.80
2008,07,12,02,23,14.80
2008,07,12,02,24,14.80
2008,07,12,02,25,14.80
2008,07,12,02,26,14.80
2008,07,12,02,27,14.80
2008,07,12,02,28,14.80
2008,07,12,02,29,14.80
2008,07,12,02,30,14.80
2008,07,12,02,31,14.80
2008,07,12,02,32,14.80
2008,07,12,02,33,14.80
2008,07,12,02,34,14.80
2008,07,12,02,35,14.80
2008,07,12,02,36,14.80
2008,07,12,02,37,14.80
2008,07,12,02,38,14.70
2008,07,12,02,39,14.70
2008,07,12,02,40,14.70
2008,07,12,02,41,14.60
2008,07,12,02,42,14.60
2008,07,12,02,43,14.60
2008,07,12,02,44,14.60
2008,07,12,02,45,14.50
2008,07,12,02,46,14.50
2008,07,12,02,47,14.40
2008,07,12,02,48,14.40
2008,07,12,02,49,14.30
2008,07,12,02,50,14.20
2008,07,12,02,51,14.20
2008,07,12,02,52,14.20
2008,07,12,02,53,14.10
2008,07,12,02,54,14.10
2008,07,12,02,55,14.00
2008,07,12,02,56,14.00
2008,07,12,02,57,14.00
2008,07,12,02,58,13.90
2008,07,12,02,59,13.90
2008,07,12,03,00,13.90
2008,07,12,03,01,13.90
2008,07,12,03,02,13.90
2008,07,12,03,03,13.80
2008,07,12,03,04,13.80
2008,07,12,03,05,13.80
2008,07,12,03,06,13.80
2008,07,12,03,07,13.80
2008,07,12,03,08,13.80
2008,07,12,03,09,13.80
2008,07,12,03,10,13.70
2008,07,12,03,11,13.70
2008,07,12,03,12,13.70
2008,07,12,03,13,13.70
2008,07,12,03,14,13.70
2008,07,12,03,15,13.70
2008,07,12,03,16,13.70
2008,07,12,03,17,13.70
2008,07,12,03,18,13.70
2008,07,12,03,19,13.70
2008,07,12,03,20,13.60
2008,07,12,03,21,13.60
2008,07,12,03,22,13.60
2008,07,12,03,23,13.50
2008,07,12,03,24,13.50
2008,07,12,03,25,13.50
2008,07,12,03,26,13.50
2008,07,12,03,27,13.40
2008,07,12,03,28,13.40
2008,07,12,03,29,13.30
2008,07,12,03,30,13.30
2008,07,12,03,31,13.30
2008,07,12,03,32,13.30
2008,07,12,03,33,13.30
2008,07,12,03,34,13.20
2008,07,12,03,35,13.20
2008,07,12,03,36,13.20
2008,07,12,03,37,13.10
2008,07,12,03,38,13.10
2008,07,12,03,39,13.10
2008,07,12,03,40,13.10
2008,07,12,03,41,13.00
2008,07,12,03,42,13.00
2008,07,12,03,43,13.00
2008,07,12,03,44,13.00
2008,07,12,03,45,13.00
2008,07,12,03,46,12.90
2008,07,12,03,47,12.90
2008,07,12,03,48,13.00
2008,07,12,03,49,13.00
2008,07,12,03,50,13.00
2008,07,12,03,51,13.00
2008,07,12,03,52,12.90
2008,07,12,03,53,12.90
2008,07,12,03,54,12.90
2008,07,12,03,55,12.90
2008,07,12,03,56,12.90
2008,07,12,03,57,12.80
2008,07,12,03,58,12.80
2008,07,12,03,59,12.80
2008,07,12,04,00,12.80
2008,07,12,04,01,12.80
2008,07,12,04,02,12.80
2008,07,12,04,03,12.80
2008,07,12,04,04,12.80
2008,07,12,04,05,12.80
2008,07,12,04,06,12.80
2008,07,12,04,07,12.80
2008,07,12,04,08,12.80
2008,07,12,04,09,12.80
2008,07,12,04,10,12.80
2008,07,12,04,11,12.80
2008,07,12,04,12,12.70
2008,07,12,04,13,12.70
2008,07,12,04,14,12.70
2008,07,12,04,15,12.70
2008,07,12,04,16,12.70
2008,07,12,04,17,12.70
2008,07,12,04,18,12.70
2008,07,12,04,19,12.70
2008,07,12,04,20,12.60
2008,07,12,04,21,12.60
2008,07,12,04,22,12.60
2008,07,12,04,23,12.60
2008,07,12,04,24,12.50
2008,07,12,04,25,12.50
2008,07,12,04,26,12.50
2008,07,12,04,27,12.50
2008,07,12,04,28,12.50
2008,07,12,04,29,12.60
2008,07,12,04,30,12.60
2008,07,12,04,31,12.60
2008,07,12,04,32,12.70
2008,07,12,04,33,12.70
2008,07,12,04,34,12.80
2008,07,12,04,35,12.80
2008,07,12,04,36,12.90
2008,07,12,04,37,13.00
2008,07,12,04,38,13.00
2008,07,12,04,39,13.00
2008,07,12,04,40,13.00
2008,07,12,04,41,13.00
2008,07,12,04,42,13.00
2008,07,12,04,43,13.00
2008,07,12,04,44,13.00
2008,07,12,04,45,13.10
2008,07,12,04,46,13.10
2008,07,12,04,47,13.10
2008,07,12,04,48,13.10
2008,07,12,04,49,13.10
2008,07,12,04,50,13.10
2008,07,12,04,51,13.10
2008,07,12,04,52,13.20
2008,07,12,04,53,13.20
2008,07,12,04,54,13.20
2008,07,12,04,55,13.20
2008,07,12,04,56,13.20
2008,07,12,04,57,13.20
2008,07,12,04,58,13.10
2008,07,12,04,59,13.10
2008,07,12,05,00,13.00
2008,07,12,05,01,13.00
2008,07,12,05,02,13.00
2008,07,12,05,03,12.90
2008,07,12,05,04,12.90
2008,07,12,05,05,12.80
2008,07,12,05,06,12.80
2008,07,12,05,07,12.80
2008,07,12,05,08,12.80
2008,07,12,05,09,12.80
2008,07,12,05,10,12.80
2008,07,12,05,11,12.70
2008,07,12,05,12,12.70
2008,07,12,05,13,12.70
2008,07,12,05,14,12.70
2008,07,12,05,15,12.60
2008,07,12,05,16,12.60
2008,07,12,05,17,12.60
2008,07,12,05,18,12.60
2008,07,12,05,19,12.60
2008,07,12,05,20,12.60
2008,07,12,05,21,12.60
2008,07,12,05,22,12.60
2008,07,12,05,23,12.60
2008,07,12,05,24,12.60
2008,07,12,05,25,12.60
2008,07,12,05,26,12.60
2008,07,12,05,27,12.60
2008,07,12,05,28,12.60
2008,07,12,05,29,12.60
2008,07,12,05,30,12.60
2008,07,12,05,31,12.60
2008,07,12,05,32,12.50
2008,07,12,05,33,12.50
2008,07,12,05,34,12.50
2008,07,12,05,35,12.50
2008,07,12,05,36,12.50
2008,07,12,05,37,12.50
2008,07,12,05,38,12.50
2008,07,12,05,39,12.40
2008,07,12,05,40,12.40
2008,07,12,05,41,12.40
2008,07,12,05,42,12.40
2008,07,12,05,43,12.40
2008,07,12,05,44,12.30
2008,07,12,05,45,12.30
2008,07,12,05,46,12.30
2008,07,12,05,47,12.30
2008,07,12,05,48,12.30
2008,07,12,05,49,12.30
2008,07,12,05,50,12.30
2008,07,12,05,51,12.30
2008,07,12,05,52,12.30
2008,07,12,05,53,12.30
2008,07,12,05,54,12.30
2008,07,12,05,55,12.30
2008,07,12,05,56,12.30
2008,07,12,05,57,12.30
2008,07,12,05,58,12.30
2008,07,12,05,59,12.30
2008,07,12,06,00,12.30
2008,07,12,06,01,12.30
2008,07,12,06,02,12.30
2008,07,12,06,03,12.30
2008,07,12,06,04,12.30
2008,07,12,06,05,12.30
2008,07,12,06,06,12.30
2008,07,12,06,07,12.30
2008,07,12,06,08,12.30
2008,07,12,06,09,12.30
2008,07,12,06,10,12.30
2008,07,12,06,11,12.40
2008,07,12,06,12,12.40
2008,07,12,06,13,12.40
2008,07,12,06,14,12.40
2008,07,12,06,15,12.50
2008,07,12,06,16,12.50
2008,07,12,06,17,12.50
2008,07,12,06,18,12.60
2008,07,12,06,19,12.60
2008,07,12,06,20,12.70
2008,07,12,06,21,12.80
2008,07,12,06,22,12.80
2008,07,12,06,23,12.80
2008,07,12,06,24,12.90
2008,07,12,06,25,12.90
2008,07,12,06,26,13.00
2008,07,12,06,27,13.00
2008,07,12,06,28,13.10
2008,07,12,06,29,13.20
2008,07,12,06,30,13.20
2008,07,12,06,31,13.30
2008,07,12,06,32,13.30
2008,07,12,06,33,13.30
2008,07,12,06,34,13.40
2008,07,12,06,35,13.40
2008,07,12,06,36,13.50
2008,07,12,06,37,13.50
2008,07,12,06,38,13.60
2008,07,12,06,39,13.60
2008,07,12,06,40,13.70
2008,07,12,06,41,13.70
2008,07,12,06,42,13.70
2008,07,12,06,43,13.80
2008,07,12,06,44,13.80
2008,07,12,06,45,13.90
2008,07,12,06,46,13.90
2008,07,12,06,47,13.90
2008,07,12,06,48,14.00
2008,07,12,06,49,14.00
2008,07,12,06,50,14.00
2008,07,12,06,51,14.10
2008,07,12,06,52,14.10
2008,07,12,06,53,14.10
2008,07,12,06,54,14.20
2008,07,12,06,55,14.20
2008,07,12,06,56,14.20
2008,07,12,06,57,14.30
2008,07,12,06,58,14.30
2008,07,12,06,59,14.40
2008,07,12,07,00,14.50
2008,07,12,07,01,14.50
2008,07,12,07,02,14.60
2008,07,12,07,03,14.60
2008,07,12,07,04,14.70
2008,07,12,07,05,14.70
2008,07,12,07,06,14.80
2008,07,12,07,07,14.80
2008,07,12,07,08,14.90
2008,07,12,07,09,14.90
2008,07,12,07,10,15.00
2008,07,12,07,11,15.10
2008,07,12,07,12,15.10
2008,07,12,07,13,15.20
2008,07,12,07,14,15.30
2008,07,12,07,15,15.30
2008,07,12,07,16,15.40
2008,07,12,07,17,15.50
2008,07,12,07,18,15.50
2008,07,12,07,19,15.60
2008,07,12,07,20,15.70
2008,07,12,07,21,15.80
2008,07,12,07,22,15.80
2008,07,12,07,23,15.90
2008,07,12,07,24,16.00
2008,07,12,07,25,16.10
2008,07,12,07,26,16.10
2008,07,12,07,27,16.20
2008,07,12,07,28,16.30
2008,07,12,07,29,16.40
2008,07,12,07,30,16.50
2008,07,12,07,31,16.60
2008,07,12,07,32,16.70
2008,07,12,07,33,16.70
2008,07,12,07,34,16.80
2008,07,12,07,35,16.90
2008,07,12,07,36,17.00
2008,07,12,07,37,17.10
2008,07,12,07,38,17.20
2008,07,12,07,39,17.30
2008,07,12,07,40,17.40
2008,07,12,07,41,17.50
2008,07,12,07,42,17.60
2008,07,12,07,43,17.70
2008,07,12,07,44,17.80
2008,07,12,07,45,17.90
2008,07,12,07,46,18.10
2008,07,12,07,47,18.20
2008,07,12,07,48,18.40
2008,07,12,07,49,18.60
2008,07,12,07,50,18.80
2008,07,12,07,51,19.00
2008,07,12,07,52,19.10
2008,07,12,07,53,19.20
2008,07,12,07,54,19.30
2008,07,12,07,55,19.40
2008,07,12,07,56,19.40
2008,07,12,07,57,19.50
2008,07,12,07,58,19.50
2008,07,12,07,59,19.50
2008,07,12,08,00,19.60
2008,07,12,08,01,19.70
2008,07,12,08,02,19.70
2008,07,12,08,03,19.70
2008,07,12,08,04,19.80
2008,07,12,08,05,19.80
2008,07,12,08,06,19.90
2008,07,12,08,07,19.90
2008,07,12,08,08,20.00
2008,07,12,08,09,20.10
2008,07,12,08,10,20.20
2008,07,12,08,11,20.20
2008,07,12,08,12,20.20
2008,07,12,08,13,20.20
2008,07,12,08,14,20.30
2008,07,12,08,15,20.40
2008,07,12,08,16,20.50
2008,07,12,08,17,20.50
2008,07,12,08,18,20.50
2008,07,12,08,19,20.50
2008,07,12,08,20,20.40
2008,07,12,08,21,20.20
2008,07,12,08,22,20.00
2008,07,12,08,23,19.80
2008,07,12,08,24,19.60
2008,07,12,08,25,19.40
2008,07,12,08,26,19.20
2008,07,12,08,27,19.10
2008,07,12,08,28,19.10
2008,07,12,08,29,19.10
2008,07,12,08,30,19.20
2008,07,12,08,31,19.30
2008,07,12,08,32,19.30
2008,07,12,08,33,19.40
2008,07,12,08,34,19.50
2008,07,12,08,35,19.50
2008,07,12,08,36,19.60
2008,07,12,08,37,19.70
2008,07,12,08,38,19.80
2008,07,12,08,39,19.90
2008,07,12,08,40,20.00
2008,07,12,08,41,20.10
2008,07,12,08,42,20.10
2008,07,12,08,43,19.90
2008,07,12,08,44,19.70
2008,07,12,08,45,19.50
2008,07,12,08,46,19.40
2008,07,12,08,47,19.20
2008,07,12,08,48,19.20
2008,07,12,08,49,19.20
2008,07,12,08,50,19.20
2008,07,12,08,51,19.20
2008,07,12,08,52,19.10
2008,07,12,08,53,19.10
2008,07,12,08,54,19.10
2008,07,12,08,55,19.10
2008,07,12,08,56,19.10
2008,07,12,08,57,19.20
2008,07,12,08,58,19.30
2008,07,12,08,59,19.40
2008,07,12,09,00,19.40
2008,07,12,09,01,19.40
2008,07,12,09,02,19.50
2008,07,12,09,03,19.60
2008,07,12,09,04,19.60
2008,07,12,09,05,19.60
2008,07,12,09,06,19.70
2008,07,12,09,07,19.60
2008,07,12,09,08,19.60
2008,07,12,09,09,19.50
2008,07,12,09,10,19.40
2008,07,12,09,11,19.40
2008,07,12,09,12,19.40
2008,07,12,09,13,19.50
2008,07,12,09,14,19.50
2008,07,12,09,15,19.60
2008,07,12,09,16,19.60
2008,07,12,09,17,19.60
2008,07,12,09,18,19.60
2008,07,12,09,19,19.60
2008,07,12,09,20,19.60
2008,07,12,09,21,19.60
2008,07,12,09,22,19.70
2008,07,12,09,23,19.70
2008,07,12,09,24,19.60
2008,07,12,09,25,19.70
2008,07,12,09,26,19.60
2008,07,12,09,27,19.70
2008,07,12,09,28,19.70
2008,07,12,09,29,19.60
2008,07,12,09,30,19.60
2008,07,12,09,31,19.70
2008,07,12,09,32,19.70
2008,07,12,09,33,19.80
2008,07,12,09,34,19.90
2008,07,12,09,35,20.00
2008,07,12,09,36,20.10
2008,07,12,09,37,20.10
2008,07,12,09,38,20.20
2008,07,12,09,39,20.20
2008,07,12,09,40,20.40
2008,07,12,09,41,20.60
2008,07,12,09,42,20.70
2008,07,12,09,43,20.80
2008,07,12,09,44,20.80
2008,07,12,09,45,20.90
2008,07,12,09,46,21.00
2008,07,12,09,47,21.10
2008,07,12,09,48,21.30
2008,07,12,09,49,21.40
2008,07,12,09,50,21.40
2008,07,12,09,51,21.50
2008,07,12,09,52,21.60
2008,07,12,09,53,21.60
2008,07,12,09,54,21.50
2008,07,12,09,55,21.30
2008,07,12,09,56,21.30
2008,07,12,09,57,21.30
2008,07,12,09,58,21.30
2008,07,12,09,59,21.30
2008,07,12,10,00,21.30
2008,07,12,10,01,21.30
2008,07,12,10,02,21.30
2008,07,12,10,03,21.30
2008,07,12,10,04,21.30
2008,07,12,10,05,21.30
2008,07,12,10,06,21.30
2008,07,12,10,07,21.20
2008,07,12,10,08,21.10
2008,07,12,10,09,21.10
2008,07,12,10,10,21.10
2008,07,12,10,11,21.20
2008,07,12,10,12,21.30
2008,07,12,10,13,21.40
2008,07,12,10,14,21.40
2008,07,12,10,15,21.40
2008,07,12,10,16,21.60
2008,07,12,10,17,21.60
2008,07,12,10,18,21.60
2008,07,12,10,19,21.60
2008,07,12,10,20,21.60
2008,07,12,10,21,21.60
2008,07,12,10,22,21.60
2008,07,12,10,23,21.60
2008,07,12,10,24,21.60
2008,07,12,10,25,21.60
2008,07,12,10,26,21.60
2008,07,12,10,27,21.50
2008,07,12,10,28,21.30
2008,07,12,10,29,21.20
2008,07,12,10,30,21.00
2008,07,12,10,31,20.90
2008,07,12,10,32,20.80
2008,07,12,10,33,20.70
2008,07,12,10,34,20.60
2008,07,12,10,35,20.60
2008,07,12,10,36,20.60
2008,07,12,10,37,20.70
2008,07,12,10,38,20.90
2008,07,12,10,39,21.00
2008,07,12,10,40,21.00
2008,07,12,10,41,21.00
2008,07,12,10,42,21.00
2008,07,12,10,43,21.10
2008,07,12,10,44,21.20
2008,07,12,10,45,21.30
2008,07,12,10,46,21.30
2008,07,12,10,47,21.30
2008,07,12,10,48,21.30
2008,07,12,10,49,21.30
2008,07,12,10,50,21.30
2008,07,12,10,51,21.30
2008,07,12,10,52,21.20
2008,07,12,10,53,21.10
2008,07,12,10,54,21.10
2008,07,12,10,55,21.20
2008,07,12,10,56,21.30
2008,07,12,10,57,21.30
2008,07,12,10,58,21.30
2008,07,12,10,59,21.30
2008,07,12,11,00,21.30
2008,07,12,11,01,21.30
2008,07,12,11,02,21.30
2008,07,12,11,03,21.30
2008,07,12,11,04,21.30
2008,07,12,11,05,21.20
2008,07,12,11,06,21.20
2008,07,12,11,07,21.30
2008,07,12,11,08,21.40
2008,07,12,11,09,21.40
2008,07,12,11,10,21.50
2008,07,12,11,11,21.60
2008,07,12,11,12,21.60
2008,07,12,11,13,21.60
2008,07,12,11,14,21.70
2008,07,12,11,15,21.80
2008,07,12,11,16,21.90
2008,07,12,11,17,22.00
2008,07,12,11,18,22.10
2008,07,12,11,19,22.30
2008,07,12,11,20,22.40
2008,07,12,11,21,22.60
2008,07,12,11,22,22.70
2008,07,12,11,23,22.90
2008,07,12,11,24,23.00
2008,07,12,11,25,23.10
2008,07,12,11,26,23.00
2008,07,12,11,27,22.90
2008,07,12,11,28,22.90
2008,07,12,11,29,22.90
2008,07,12,11,30,22.80
2008,07,12,11,31,22.60
2008,07,12,11,32,22.60
2008,07,12,11,33,22.60
2008,07,12,11,34,22.60
2008,07,12,11,35,22.70
2008,07,12,11,36,22.80
2008,07,12,11,37,22.90
2008,07,12,11,38,23.00
2008,07,12,11,39,23.10
2008,07,12,11,40,23.20
2008,07,12,11,41,23.20
2008,07,12,11,42,23.20
2008,07,12,11,43,23.20
2008,07,12,11,44,23.20
2008,07,12,11,45,23.20
2008,07,12,11,46,23.20
2008,07,12,11,47,23.30
2008,07,12,11,48,23.30
2008,07,12,11,49,23.30
2008,07,12,11,50,23.40
2008,07,12,11,51,23.50
2008,07,12,11,52,23.60
2008,07,12,11,53,23.50
2008,07,12,11,54,23.30
2008,07,12,11,55,23.10
2008,07,12,11,56,23.00
2008,07,12,11,57,22.90
2008,07,12,11,58,22.80
2008,07,12,11,59,22.60
2008,07,12,12,00,22.40
2008,07,12,12,01,22.40
2008,07,12,12,02,22.60
2008,07,12,12,03,22.70
2008,07,12,12,04,22.80
2008,07,12,12,05,22.80
2008,07,12,12,06,22.80
2008,07,12,12,07,22.70
2008,07,12,12,08,22.70
2008,07,12,12,09,22.80
2008,07,12,12,10,22.90
2008,07,12,12,11,22.90
2008,07,12,12,12,23.00
2008,07,12,12,13,23.10
2008,07,12,12,14,23.20
2008,07,12,12,15,23.20
2008,07,12,12,16,23.20
2008,07,12,12,17,23.20
2008,07,12,12,18,23.30
2008,07,12,12,19,23.30
2008,07,12,12,20,23.20
2008,07,12,12,21,23.10
2008,07,12,12,22,23.10
2008,07,12,12,23,23.10
2008,07,12,12,24,23.10
2008,07,12,12,25,23.10
2008,07,12,12,26,23.10
2008,07,12,12,27,23.10
2008,07,12,12,28,23.20
2008,07,12,12,29,23.20
2008,07,12,12,30,23.20
2008,07,12,12,31,23.20
2008,07,12,12,32,23.10
2008,07,12,12,33,23.20
2008,07,12,12,34,23.10
2008,07,12,12,35,22.90
2008,07,12,12,36,22.90
2008,07,12,12,37,23.00
2008,07,12,12,38,23.20
2008,07,12,12,39,23.30
2008,07,12,12,40,23.10
2008,07,12,12,41,23.10
2008,07,12,12,42,23.10
2008,07,12,12,43,23.20
2008,07,12,12,44,23.30
2008,07,12,12,45,23.30
2008,07,12,12,46,23.40
2008,07,12,12,47,23.40
2008,07,12,12,48,23.60
2008,07,12,12,49,23.70
2008,07,12,12,50,23.80
2008,07,12,12,51,23.90
2008,07,12,12,52,24.00
2008,07,12,12,53,24.10
2008,07,12,12,54,24.20
2008,07,12,12,55,24.30
2008,07,12,12,56,24.30
2008,07,12,12,57,24.20
2008,07,12,12,58,24.20
2008,07,12,12,59,24.10
2008,07,12,13,00,23.90
2008,07,12,13,01,23.70
2008,07,12,13,02,23.50
2008,07,12,13,03,23.40
2008,07,12,13,04,23.40
2008,07,12,13,05,23.30
2008,07,12,13,06,23.40
2008,07,12,13,07,23.60
2008,07,12,13,08,23.70
2008,07,12,13,09,23.80
2008,07,12,13,10,23.90
2008,07,12,13,11,23.80
2008,07,12,13,12,23.80
2008,07,12,13,13,23.80
2008,07,12,13,14,23.70
2008,07,12,13,15,23.70
2008,07,12,13,16,23.70
2008,07,12,13,17,23.70
2008,07,12,13,18,23.70
2008,07,12,13,19,23.70
2008,07,12,13,20,23.70
2008,07,12,13,21,23.70
2008,07,12,13,22,23.60
2008,07,12,13,23,23.60
2008,07,12,13,24,23.40
2008,07,12,13,25,23.30
2008,07,12,13,26,23.30
2008,07,12,13,27,23.30
2008,07,12,13,28,23.30
2008,07,12,13,29,23.30
2008,07,12,13,30,23.30
2008,07,12,13,31,23.20
2008,07,12,13,32,23.00
2008,07,12,13,33,22.90
2008,07,12,13,34,22.90
2008,07,12,13,35,22.90
2008,07,12,13,36,22.90
2008,07,12,13,37,22.80
2008,07,12,13,38,22.80
2008,07,12,13,39,22.80
2008,07,12,13,40,22.90
2008,07,12,13,41,22.90
2008,07,12,13,42,22.90
2008,07,12,13,43,22.80
2008,07,12,13,44,22.90
2008,07,12,13,45,22.90
2008,07,12,13,46,23.00
2008,07,12,13,47,23.30
2008,07,12,13,48,23.40
2008,07,12,13,49,23.60
2008,07,12,13,50,23.70
2008,07,12,13,51,23.70
2008,07,12,13,52,23.70
2008,07,12,13,53,23.70
2008,07,12,13,54,23.70
2008,07,12,13,55,23.70
2008,07,12,13,56,23.80
2008,07,12,13,57,23.90
2008,07,12,13,58,23.90
2008,07,12,13,59,24.00
2008,07,12,14,00,24.00
2008,07,12,14,01,23.90
2008,07,12,14,02,23.90
2008,07,12,14,03,23.90
2008,07,12,14,04,23.90
2008,07,12,14,05,23.80
2008,07,12,14,06,23.70
2008,07,12,14,07,23.80
2008,07,12,14,08,23.80
2008,07,12,14,09,23.80
2008,07,12,14,10,23.80
2008,07,12,14,11,23.80
2008,07,12,14,12,23.70
2008,07,12,14,13,23.60
2008,07,12,14,14,23.40
2008,07,12,14,15,23.10
2008,07,12,14,16,22.90
2008,07,12,14,17,22.80
2008,07,12,14,18,22.80
2008,07,12,14,19,22.90
2008,07,12,14,20,22.90
2008,07,12,14,21,22.90
2008,07,12,14,22,23.00
2008,07,12,14,23,23.20
2008,07,12,14,24,23.20
2008,07,12,14,25,23.30
2008,07,12,14,26,23.40
2008,07,12,14,27,23.50
2008,07,12,14,28,23.60
2008,07,12,14,29,23.70
2008,07,12,14,30,23.80
2008,07,12,14,31,23.80
2008,07,12,14,32,23.90
2008,07,12,14,33,23.90
2008,07,12,14,34,23.90
2008,07,12,14,35,23.90
2008,07,12,14,36,23.90
2008,07,12,14,37,24.10
2008,07,12,14,38,24.20
2008,07,12,14,39,24.40
2008,07,12,14,40,24.40
2008,07,12,14,41,24.30
2008,07,12,14,42,24.10
2008,07,12,14,43,24.00
2008,07,12,14,44,23.90
2008,07,12,14,45,24.00
2008,07,12,14,46,24.10
2008,07,12,14,47,24.10
2008,07,12,14,48,24.10
2008,07,12,14,49,24.10
2008,07,12,14,50,24.20
2008,07,12,14,51,24.30
2008,07,12,14,52,24.30
2008,07,12,14,53,24.40
2008,07,12,14,54,24.30
2008,07,12,14,55,24.30
2008,07,12,14,56,24.10
2008,07,12,14,57,24.10
2008,07,12,14,58,24.10
2008,07,12,14,59,24.10
2008,07,12,15,00,24.10
2008,07,12,15,01,24.10
2008,07,12,15,02,24.20
2008,07,12,15,03,24.20
2008,07,12,15,04,24.20
2008,07,12,15,05,24.30
2008,07,12,15,06,24.40
2008,07,12,15,07,24.30
2008,07,12,15,08,24.20
2008,07,12,15,09,24.20
2008,07,12,15,10,24.10
2008,07,12,15,11,24.00
2008,07,12,15,12,23.80
2008,07,12,15,13,23.70
2008,07,12,15,14,23.70
2008,07,12,15,15,23.70
2008,07,12,15,16,23.70
2008,07,12,15,17,23.80
2008,07,12,15,18,23.90
2008,07,12,15,19,23.80
2008,07,12,15,20,23.80
2008,07,12,15,21,23.80
2008,07,12,15,22,23.90
2008,07,12,15,23,23.90
2008,07,12,15,24,23.90
2008,07,12,15,25,23.90
2008,07,12,15,26,23.80
2008,07,12,15,27,23.80
2008,07,12,15,28,23.70
2008,07,12,15,29,23.70
2008,07,12,15,30,23.70
2008,07,12,15,31,23.60
2008,07,12,15,32,23.60
2008,07,12,15,33,23.60
2008,07,12,15,34,23.60
2008,07,12,15,35,23.60
2008,07,12,15,36,23.70
2008,07,12,15,37,23.80
2008,07,12,15,38,23.90
2008,07,12,15,39,23.90
2008,07,12,15,40,23.70
2008,07,12,15,41,23.60
2008,07,12,15,42,23.50
2008,07,12,15,43,23.40
2008,07,12,15,44,23.40
2008,07,12,15,45,23.40
2008,07,12,15,46,23.50
2008,07,12,15,47,23.60
2008,07,12,15,48,23.60
2008,07,12,15,49,23.70
2008,07,12,15,50,23.70
2008,07,12,15,51,23.70
2008,07,12,15,52,23.70
2008,07,12,15,53,23.70
2008,07,12,15,54,23.70
2008,07,12,15,55,23.80
2008,07,12,15,56,23.90
2008,07,12,15,57,24.00
2008,07,12,15,58,24.10
2008,07,12,15,59,24.20
2008,07,12,16,00,24.30
2008,07,12,16,01,24.40
2008,07,12,16,02,24.40
2008,07,12,16,03,24.50
2008,07,12,16,04,24.60
2008,07,12,16,05,24.60
2008,07,12,16,06,24.60
2008,07,12,16,07,24.60
2008,07,12,16,08,24.60
2008,07,12,16,09,24.60
2008,07,12,16,10,24.50
2008,07,12,16,11,24.50
2008,07,12,16,12,24.40
2008,07,12,16,13,24.30
2008,07,12,16,14,24.20
2008,07,12,16,15,24.20
2008,07,12,16,16,24.10
2008,07,12,16,17,24.00
2008,07,12,16,18,24.00
2008,07,12,16,19,24.10
2008,07,12,16,20,24.10
2008,07,12,16,21,24.30
2008,07,12,16,22,24.40
2008,07,12,16,23,24.50
2008,07,12,16,24,24.60
2008,07,12,16,25,24.70
2008,07,12,16,26,24.80
2008,07,12,16,27,24.80
2008,07,12,16,28,24.90
2008,07,12,16,29,25.10
2008,07,12,16,30,25.20
2008,07,12,16,31,25.30
2008,07,12,16,32,25.40
2008,07,12,16,33,25.50
2008,07,12,16,34,25.50
2008,07,12,16,35,25.40
2008,07,12,16,36,25.30
2008,07,12,16,37,25.40
2008,07,12,16,38,25.40
2008,07,12,16,39,25.40
2008,07,12,16,40,25.30
2008,07,12,16,49,26.10
2008,07,12,16,50,26.20
2008,07,12,16,51,26.30
2008,07,12,16,52,26.30
2008,07,12,16,53,26.40
2008,07,12,16,54,26.50
2008,07,12,16,55,26.60
2008,07,12,16,56,26.60
2008,07,12,16,57,26.70
2008,07,12,16,58,26.90
2008,07,12,16,59,27.10
2008,07,12,17,00,27.20
2008,07,12,17,01,27.30
2008,07,12,17,02,27.30
2008,07,12,17,03,27.30
2008,07,12,17,04,27.30
2008,07,12,17,05,27.30
2008,07,12,17,06,27.40
2008,07,12,17,07,27.50
2008,07,12,17,08,27.70
2008,07,12,17,09,27.80
2008,07,12,17,10,27.90
2008,07,12,17,11,27.90
2008,07,12,17,12,27.80
2008,07,12,17,13,27.80
2008,07,12,17,14,27.60
2008,07,12,17,15,27.50
2008,07,12,17,16,27.40
2008,07,12,17,17,27.40
2008,07,12,17,18,27.40
2008,07,12,17,19,27.40
2008,07,12,17,20,27.30
2008,07,12,17,21,27.20
2008,07,12,17,22,27.20
2008,07,12,17,23,27.20
2008,07,12,17,24,27.10
2008,07,12,17,25,27.10
2008,07,12,17,26,27.10
2008,07,12,17,27,27.10